Weather History for KMIE - November, 2012

Change the Weather History Date:

Thursday, November 29, 2012

  Actual Average Record
Temperature  
Mean Temperature 38 °F 36 °F  
Max Temperature 47 °F 44 °F 66 °F (1998)
Min Temperature 28 °F 29 °F 8 °F (1976)
Degree Days  
Heating Degree Days 27 28  
Month to date heating degree days 707 642  
Since 1 July heating degree days 1238 1106  
Cooling Degree Days 0 0  
Month to date cooling degree days 0 0  
Year to date cooling degree days 1149 955  
Moisture  
Dew Point 25 °F    
Average Humidity 60    
Maximum Humidity 75    
Minimum Humidity 45    
Precipitation  
Precipitation 0.00 in 0.11 in 0.77 in (2011)
Month to date precipitation 0.92 3.34  
Year to date precipitation 30.57 37.13  
Sea Level Pressure  
Sea Level Pressure 30.28 in    
Wind  
Wind Speed 8 mph (South)    
Max Wind Speed 16 mph    
Max Gust Speed 30 mph    
Visibility 9 miles    
Events      
T = Trace of Precipitation, MM = Missing Value Source: NWS Daily Summary

Daily Weather History Graph

Daily Weather History Graph

Search for Another Location

Airport or City:

Trip Planner

Search our weather history database for the weather conditions in past years. The results will help you decide how hot, cold, wet, or windy it might be!

Date:

Astronomy

Nov. 29, 2012 Rise Set
Actual Time 7:43 AM EST 5:16 PM EST
Civil Twilight 7:13 AM EST 5:46 PM EST
Nautical Twilight 6:39 AM EST 6:20 PM EST
Astronomical Twilight 6:06 AM EST 6:53 PM EST
Moon 6:18 PM EST (11/29) 8:29 AM EST (11/29)
Length of Visible Light 10h 33m
Length of Day
9h 33m
Full, 99% of the Moon is Illuminated
Nov 29
Full
Dec 6
Last Quarter
Dec 13
New
Dec 20
First Quarter
Dec 28
Full

Hourly Weather History & Observations

Time (EST) Temp. Windchill Dew Point Humidity Pressure Visibility Wind Dir Wind Speed Gust Speed Precip Events Conditions
12:53 AM 30.0 °F 24.1 °F 21.9 °F 72% 30.38 in 8.0 mi South 5.8 mph - N/A   Clear
2:53 AM 30.0 °F 24.1 °F 21.0 °F 69% 30.36 in 8.0 mi South 5.8 mph - N/A   Clear
3:53 AM 28.9 °F 22.8 °F 21.0 °F 72% 30.36 in 8.0 mi South 5.8 mph - N/A   Clear
4:53 AM 28.9 °F 25.2 °F 21.0 °F 72% 30.37 in 8.0 mi SSW 3.5 mph - N/A   Clear
5:53 AM 28.9 °F 23.9 °F 21.0 °F 72% 30.37 in 8.0 mi South 4.6 mph - N/A   Clear
6:53 AM 30.0 °F 23.2 °F 21.0 °F 69% 30.36 in 8.0 mi South 6.9 mph - N/A   Clear
7:53 AM 30.0 °F 23.2 °F 21.0 °F 69% 30.35 in 7.0 mi South 6.9 mph - N/A   Clear
8:53 AM 33.1 °F 26.1 °F 21.9 °F 64% 30.35 in 8.0 mi SSW 8.1 mph - N/A   Clear
9:53 AM 37.0 °F 29.8 °F 24.1 °F 59% 30.35 in 9.0 mi SSW 10.4 mph - N/A   Clear
11:53 AM 43.0 °F 36.0 °F 26.1 °F 51% 30.32 in 10.0 mi SSW 13.8 mph - N/A   Clear
12:53 PM 46.0 °F 40.2 °F 27.0 °F 47% 30.28 in 10.0 mi SW 12.7 mph 19.6 mph N/A   Clear
1:53 PM 46.0 °F 40.6 °F 27.0 °F 47% 30.25 in 8.0 mi SSW 11.5 mph 19.6 mph N/A   Clear
2:53 PM 46.9 °F - 28.0 °F 48% 30.23 in 10.0 mi SSW 11.5 mph - N/A   Clear
3:53 PM 46.0 °F 40.2 °F 27.0 °F 47% 30.22 in 10.0 mi SSW 12.7 mph 18.4 mph N/A   Clear
4:53 PM 44.1 °F 40.1 °F 27.0 °F 51% 30.23 in 10.0 mi SW 6.9 mph - N/A   Clear
5:53 PM 42.1 °F 38.4 °F 27.0 °F 55% 30.23 in 10.0 mi South 5.8 mph - N/A   Clear
6:53 PM 42.1 °F 38.4 °F 27.0 °F 55% 30.22 in 10.0 mi South 5.8 mph - N/A   Clear
7:53 PM 42.1 °F 37.7 °F 26.1 °F 53% 30.21 in 10.0 mi South 6.9 mph - N/A   Clear
8:53 PM 42.1 °F 37.1 °F 26.1 °F 53% 30.21 in 10.0 mi South 8.1 mph - N/A   Clear
9:53 PM 42.1 °F 36.6 °F 26.1 °F 53% 30.19 in 10.0 mi South 9.2 mph - N/A   Clear
10:53 PM 37.9 °F 35.5 °F 27.0 °F 65% 30.20 in 10.0 mi SE 3.5 mph - N/A   Clear
11:53 PM 37.0 °F 34.5 °F 27.0 °F 67% 30.20 in 10.0 mi SE 3.5 mph - N/A   Scattered Clouds